Showing default

NUSAT-47, 66743

Orbit data source: Space-Track

NUSAT-47, 66743 is a payload satellite owned by URUGUS S.A. (AR) in SSO that was launched on Fri, 28 Nov 2025 UTC via an FALCON 9 launch vehicle from the Air Force Western Test Range (AFWTR). Payload-class satellites include a variety of spacecraft equipped with specific instruments for various scientific and technological missions. These include communications satellites like Starlink; space stations such as the ISS; scientific satellites like the Hubble; Earth observation satellites from companies like Planet Labs, Umbra, and HawkEye 360; GPS; miniature CubeSats for education and research; and military/defense satellites.

Loading next visibility...
Identifier
66743, 2025-276CF
Orbit
SSO
Country
Flag of UnknownUnknown / ARGN
Related business
Manufacturer
URUGUS S.A.
Mission
Operational Amateur Imaging
Bus & Motor
NEWSAT V, Unknown motor
Mass
41.5 kg wet, 38.5 kg dry
Launch date (UTC)
2025-11-28 (2 months ago)
Launch vehicle
FALCON 9
Launch site
Air Force Western Test Range (AFWTR)
Object type
Payload
Rocket body
Debris
Shape & HBR
Box + 1 Pan, 0.1 m
Radar Cross Section
0.080 m²

Expand to show TLE details & history
Last TLE update: 1 day ago

TLE from 1 day ago
0 NUSAT-47
1 66743U 25276CF  26034.21552505  .00008497  00000-0  41762-3 0  9999
2 66743  97.4336 110.0637 0003241 104.8243 255.3350 15.18278444 10086
Epoch: 2026-02-03T05:10Z
TLE epoch observation values (Epoch: 2026-02-03T05:10:21.364Z)
Latitude
-0.00004°
Longitude
-100.92496°
Altitude
514.697 km
Speed
7.606 km/s
True Right ascension
07h 20m 15s
True Declination
0° 00' 00"
Sunlit
Object was in full shadow at epoch
Visualization orbit readout
Latitude
Unknown
Longitude
Unknown
Altitude
Unknown
Speed
Unknown
Apparent Right ascension
Unknown
Apparent Declination
Unknown
Sunlit
N/A
Visualization observer readout
Local Sidereal Time
07:46:15
Azimuth
Unknown
Elevation
Unknown
Doppler factor
Unknown
Orbital elements
Apogee altitude
510.245 km
Perigee altitude
505.781 km
Semi-major axis
6,886.15 km
Eccentricity
0.00032
Inclination
97.4336°
RAAN
110.0637°
Arg. of periapsis
104.8243°
True anomaly
255.29907°
Mean anomaly
255.335°
Eccentric anomaly
255.31704°
Mean motion
3.79821 °/min
Orbital period
94.78 mins
BSTAR
0.00041762
Loading maneuver chart data...
Computing Atmospheric mass density...
Loading historical data...
Loading historical data...
Loading historical data...
Loading historical data...
Loading historical data...
Loading historical data...
Loading historical data...

Documentation

Showing up to 5 results
|